Weather History for Truckee-Tahoe, CA

Change the Weather History Date:

Saturday, August 18, 2012

  Actual Average Record
Temperature  
Mean Temperature 65 °F -  
Max Temperature 80 °F 78 °F 91 °F (1950)
Min Temperature 50 °F 41 °F 30 °F (2007)
Growing Degree Days 15 (Base 50)    
Moisture  
Dew Point 49 °F    
Average Humidity 71    
Maximum Humidity 100    
Minimum Humidity 29    
Precipitation  
Precipitation 0.00 in - - ()
Sea Level Pressure  
Sea Level Pressure 30.24 in    
Wind  
Wind Speed 2 mph (SSW)    
Max Wind Speed 10 mph    
Max Gust Speed 18 mph    
Visibility 9 miles    
Events Fog , Rain    
Averages and records for this station are not official NWS values.
T = Trace of Precipitation, MM = Missing Value Source: NWS Daily Summary

Daily Weather History Graph

Daily Weather History Graph

Search for Another Location

Airport:

Trip Planner

Search our weather history database for the weather conditions in past years. The results will help you decide how hot, cold, wet, or windy it might be!

Date:

Astronomy

Aug. 18, 2012 Rise Set
Actual Time 6:16 AM PDT 7:51 PM PDT
Civil Twilight 5:48 AM PDT 8:19 PM PDT
Nautical Twilight 5:14 AM PDT 8:53 PM PDT
Astronomical Twilight 4:37 AM PDT 9:29 PM PDT
Moon 7:29 AM PDT 8:10 PM PDT
Length of Visible Light 14h 31m
Length of Day
13h 34m
New Moon, 2% of the Moon is Illuminated
Aug 18
New Moon
Aug 24
First Quarter
Aug 31
Full
Sep 8
Last Quarter
Sep 15
New

Hourly Weather History & Observations

Time (PDT) Temp. Dew Point Humidity Pressure Visibility Wind Dir Wind Speed Gust Speed Precip Events Conditions
12:15 AM 53.6 °F 51.8 °F 94% 30.27 in 10.0 mi WSW 3.5 mph - N/A   Clear
12:35 AM 53.6 °F 51.8 °F 94% 30.27 in 10.0 mi Calm Calm - N/A   Clear
12:55 AM 51.8 °F 50.0 °F 94% 30.27 in 6.0 mi Calm Calm - N/A   Clear
1:15 AM 53.6 °F 51.8 °F 94% 30.27 in 9.0 mi Calm Calm - N/A   Clear
1:35 AM 50.0 °F 50.0 °F 100% 30.27 in 0.5 mi SSE 3.5 mph - N/A Fog Fog
1:55 AM 50.0 °F 50.0 °F 100% 30.26 in 3.0 mi Calm Calm - N/A   Overcast
2:15 AM 51.8 °F 50.0 °F 94% 30.26 in 10.0 mi Calm Calm - N/A   Mostly Cloudy
2:35 AM 53.6 °F 50.0 °F 88% 30.26 in 10.0 mi NE 3.5 mph - N/A   Mostly Cloudy
2:55 AM 51.8 °F 50.0 °F 94% 30.26 in 10.0 mi SSW 3.5 mph - N/A   Scattered Clouds
3:15 AM 53.6 °F 51.8 °F 94% 30.26 in 10.0 mi ESE 3.5 mph - N/A   Overcast
3:35 AM 51.8 °F 51.8 °F 100% 30.25 in 10.0 mi Calm Calm - N/A   Scattered Clouds
3:55 AM 51.8 °F 51.8 °F 100% 30.25 in 10.0 mi Calm Calm - N/A   Mostly Cloudy
4:15 AM 53.6 °F 51.8 °F 94% 30.25 in 10.0 mi Calm Calm - N/A Rain Light Rain
4:35 AM 53.6 °F 51.8 °F 94% 30.25 in 8.0 mi Calm Calm - N/A Rain Light Rain
4:55 AM 53.6 °F 51.8 °F 94% 30.26 in 10.0 mi ESE 4.6 mph - N/A   Scattered Clouds
5:15 AM 51.8 °F 50.0 °F 94% 30.26 in 9.0 mi South 3.5 mph - N/A   Mostly Cloudy
5:35 AM 51.8 °F 51.8 °F 100% 30.26 in 10.0 mi Calm Calm - N/A   Partly Cloudy
5:55 AM 53.6 °F 51.8 °F 94% 30.26 in 10.0 mi SW 3.5 mph - N/A   Clear
6:15 AM 51.8 °F 50.0 °F 94% 30.26 in 3.0 mi Calm Calm - N/A   Scattered Clouds
6:35 AM 50.0 °F 50.0 °F 100% 30.27 in 3.0 mi ESE 3.5 mph - N/A   Scattered Clouds
6:45 AM 50.0 °F 50.0 °F 100% 30.27 in 10.0 mi Calm Calm - N/A   Mostly Cloudy
7:50 AM 53.6 °F 53.6 °F 100% 30.27 in 10.0 mi Calm Calm - N/A   Mostly Cloudy
8:45 AM 59.0 °F 53.6 °F 82% 30.28 in 10.0 mi Calm Calm - N/A   Mostly Cloudy
9:50 AM 62.6 °F 55.4 °F 77% 30.27 in 10.0 mi Calm Calm - N/A   Mostly Cloudy
10:55 AM 71.6 °F 50.0 °F 46% 30.27 in 10.0 mi Calm Calm - N/A   Mostly Cloudy
11:55 AM 73.4 °F 51.8 °F 47% 30.27 in 10.0 mi Calm Calm - N/A   Mostly Cloudy
12:50 PM 77.0 °F 48.2 °F 36% 30.25 in 10.0 mi South 6.9 mph - N/A   Mostly Cloudy
1:55 PM 77.0 °F 46.4 °F 34% 30.25 in 10.0 mi Calm Calm - N/A   Mostly Cloudy
2:55 PM 80.6 °F 46.4 °F 30% 30.23 in 10.0 mi SSW 6.9 mph 18.4 mph N/A   Mostly Cloudy
3:45 PM 77.0 °F 50.0 °F 39% 30.22 in 10.0 mi South 10.4 mph - N/A   Mostly Cloudy
4:50 PM 77.0 °F 42.8 °F 29% 30.22 in 10.0 mi WNW 10.4 mph 16.1 mph N/A   Mostly Cloudy
5:55 PM 75.2 °F 42.8 °F 31% 30.21 in 10.0 mi West 3.5 mph - N/A   Partly Cloudy
6:15 PM 75.2 °F 42.8 °F 31% 30.21 in 10.0 mi WNW 8.1 mph - N/A   Partly Cloudy
6:35 PM 75.2 °F 41.0 °F 29% 30.20 in 10.0 mi West 9.2 mph - N/A   Partly Cloudy
6:55 PM 73.4 °F 41.0 °F 31% 30.20 in 10.0 mi West 9.2 mph - N/A   Clear
7:15 PM 71.6 °F 41.0 °F 33% 30.21 in 10.0 mi WSW 6.9 mph - N/A   Partly Cloudy
7:35 PM 69.8 °F 42.8 °F 38% 30.21 in 10.0 mi SW 4.6 mph - N/A   Clear
7:55 PM 68.0 °F 44.6 °F 43% 30.22 in 10.0 mi SW 4.6 mph - N/A   Clear
8:15 PM 66.2 °F 46.4 °F 49% 30.22 in 10.0 mi SSE 4.6 mph - N/A   Clear
8:35 PM 64.4 °F 48.2 °F 56% 30.22 in 10.0 mi SSE 4.6 mph - N/A   Clear
8:55 PM 62.6 °F 48.2 °F 59% 30.22 in 10.0 mi SSE 5.8 mph - N/A   Clear
9:15 PM 62.6 °F 48.2 °F 59% 30.23 in 10.0 mi SE 4.6 mph - N/A   Clear
9:35 PM 62.6 °F 48.2 °F 59% 30.23 in 10.0 mi Calm Calm - N/A   Clear
9:55 PM 59.0 °F 50.0 °F 72% 30.23 in 10.0 mi SSE 4.6 mph - N/A   Clear
10:15 PM 59.0 °F 46.4 °F 63% 30.22 in 10.0 mi South 3.5 mph - N/A   Clear
10:35 PM 57.2 °F 46.4 °F 67% 30.22 in 10.0 mi Calm Calm - N/A   Clear
10:55 PM 55.4 °F 48.2 °F 77% 30.22 in 10.0 mi Calm Calm - N/A   Clear
11:15 PM 57.2 °F 46.4 °F 67% 30.22 in 10.0 mi Calm Calm - N/A   Clear
11:35 PM 55.4 °F 48.2 °F 77% 30.22 in 10.0 mi Calm Calm - N/A   Clear
11:55 PM 57.2 °F 46.4 °F 67% 30.22 in 10.0 mi Calm Calm - N/A   Clear